OpenBCM V2.0.3 (Linux)

Packet Radio Mailbox

IZ3LSV

[San Dona' di P. JN]

 Login: GUEST





  
I0OJJ  > KEPS     09.05.26 07:30l 321 Lines 15315 Bytes #44 (0) @ AMSAT
BID : ORB26129.1
Read: GUEST
Subj: 2Line Orbital Elements 26129.AMSAT
Path: IZ3LSV<I0OJJ
Sent: 260509/0021Z 204@I0OJJ.ITA.EU [Rome] $:ORB26129.1
From: I0OJJ@I0OJJ.ITA.EU
To  : KEPS@AMSAT


QST de W1STR

AMSAT Orbital Elements for Amateur Satellites in TLE Format
From Orbital Analysis Office
New England Sci-Tech STEM Education Center
Natick MA May 09, 2026
To all radio amateurs


These element sets describe the orbits of various satellites 
in use by the amateur radio community. For details see:
www.amsat.org/keplerian-elements-formats/

A daily update of element sets is available at:
www.amsat.org/tle/daily-bulletin.txt
or without bulletin text:
www.amsat.org/tle/dailytle.txt


AO-07
1 07530U 74089B   26128.82929052 -.00000043  00000-0  21153-4 0  9993
2 07530 101.9920 141.6633 0012092 204.6207 336.9062 12.53697405355585
UO-11
1 14781U 84021B   26128.88759566  .00000938  00000-0  10135-3 0  9992
2 14781  97.8034  94.9113 0006598 324.4672  35.6105 14.90690888251277
AO-27
1 22825U 93061C   26128.42278618  .00000075  00000-0  45744-4 0  9995
2 22825  98.6894 195.8468 0007810 210.1992 149.8741 14.30931363701315
FO-29
1 24278U 96046B   26128.82912288 -.00000043  00000-0 -76989-5 0  9990
2 24278  98.5284 343.0831 0349525 198.4143 160.4079 13.53272353467841
GO-32
1 25397U 98043D   26128.86868889  .00000048  00000-0  40758-4 0  9990
2 25397  99.0062 120.6381 0001220  21.0317 339.0910 14.24420614445730
ISS
1 25544U 98067A   26128.77995169  .00007005  00000-0  13445-3 0  9994
2 25544  51.6310 135.1683 0007383  37.9322 322.2185 15.49151526565640
NO-44
1 26931U 01043C   26128.83614218  .00000085  00000-0  62814-4 0  9999
2 26931  67.0518 346.0523 0006341 263.8381  96.1998 14.31940761284819
SO-50
1 27607U 02058C   26128.77363422  .00000968  00000-0  13154-3 0  9990
2 27607  64.5523 250.9199 0075633 269.6660  89.5780 14.82963353258616
CO-55
1 27844U 03031E   26128.55744907  .00000243  00000-0  12404-3 0  9995
2 27844  98.6748 137.6136 0008484 305.0513  54.9869 14.24311023186037
RS-22
1 27939U 03042A   26128.90140986  .00001259  00000-0  20241-3 0  9994
2 27939  98.3473 312.1527 0012121  38.5767  69.6371 14.73400076209768
CO-65
1 32785U 08021C   26128.86682447  .00004245  00000-0  27184-3 0  9990
2 32785  97.8267 109.4855 0009785 151.9407 208.2350 15.09084426979266
CO-66
1 32791U 08021J   26128.88149791  .00017340  00000-0  57323-3 0  9997
2 32791  97.7533 124.9482 0005120  92.6441 267.5386 15.31423331981272
RS-30
1 32953U 08025A   26128.82516535  .00000055  00000-0  32373-3 0  9992
2 32953  82.5070  19.9243 0020433  39.1306 321.1247 12.43178121814809
SRMSAT
1 37841U 11058D   26128.76980671  .00000397  00000-0  71396-4 0  9990
2 37841  19.9730 298.0583 0011756 130.1089 261.7772 14.11566939752248
ZACUBE-1
1 39417U 13066B   26128.87669922  .00004224  00000-0  33054-3 0  9998
2 39417  97.8125  91.0012 0042469  25.4476 334.8826 15.00884427674835
Delfi-N3xt
1 39428U 13066N   26128.75169370  .00006154  00000-0  54288-3 0  9995
2 39428  97.8340  49.1122 0074615 339.4178  20.4040 14.94634281668738
GOMX-1
1 39430U 13066Q   26128.82528707  .00001644  00000-0  25334-3 0  9998
2 39430  97.6511 331.7693 0128174 203.3498 156.1856 14.69307822664138
LO-74
1 39440U 13066AA  26128.80482814  .00003233  00000-0  30286-3 0  9993
2 39440  97.8886  77.6333 0058589 156.4198 203.9727 14.93473589671115
AO-73
1 39444U 13066AE  26128.87274007  .00008007  00000-0  50333-3 0  9996
2 39444  97.8254  99.5196 0035903 340.3247  19.6593 15.08977950673733
DTUSAT-2
1 40030U 14033W   26128.73458604  .00006893  00000-0  37797-3 0  9996
2 40030  98.0870 123.9759 0008296  22.4490 337.7102 15.14505244646711
LILACSAT-2
1 40908U 15049K   26128.84634565  .00015934  00000-0  28395-3 0  9992
2 40908  97.4702 164.2229 0008031  50.2091 309.9866 15.50159190589657
Horyu-4
1 41340U 16012D   26128.75495517  .00148583  00000-0  86174-3 0  9992
2 41340  30.9894   3.7947 0006169 349.2614  10.7910 15.76968373564556
Lapan A3
1 41603U 16040E   26128.89549897  .00003161  00000-0  10179-3 0  9995
2 41603  97.1492 126.3421 0011301 147.6967 212.4970 15.32858783548791
CAS-2T
1 41847U 16066G   26128.82910013  .00000638  00000-0  99765-4 0  9993
2 41847  98.3826 205.0103 0340945 248.9137 107.5290 14.44586292499115
TechnoSat
1 42829U 17042E   26128.81785139  .00002068  00000-0  15068-3 0  9999
2 42829  97.4245 287.9919 0016547 224.3791 135.6110 15.04718481480787
AO-91
1 43017U 17073E   26128.57580169  .00008717  00000-0  38290-3 0  9991
2 43017  97.4761 356.6151 0154101 105.2152 256.6177 15.11997673459401
S-Net D
1 43186U 18014G   26128.80527294  .00004354  00000-0  22801-3 0  9994
2 43186  97.5387  33.8476 0009231 145.0515 215.1326 15.16304853452793
S-Net B
1 43187U 18014H   26128.61797897  .00004414  00000-0  23129-3 0  9993
2 43187  97.5391  33.6470 0009965 141.9177 218.2762 15.16272957452768
S-Net A
1 43188U 18014J   26128.67236275  .00004322  00000-0  22633-3 0  9995
2 43188  97.5402  33.9024 0009828 142.3917 217.8005 15.16310501452779
S-Net C
1 43189U 18014K   26128.68763311  .00004395  00000-0  23031-3 0  9996
2 43189  97.5419  33.9862 0011337 136.7917 223.4208 15.16264454451326
Ten-Koh
1 43677U 18084G   26128.77387977  .00001239  00000-0  97561-4 0  9999
2 43677  98.0783 319.4832 0007734 246.1109 113.9305 15.02770813410245
PO-101
1 43678U 18084H   26128.82143453  .00002401  00000-0  19677-3 0  9998
2 43678  98.1090 323.3457 0012237 307.1606  52.8498 15.00257962410314
QO-100
1 43700U 18090A   26128.83406343  .00000152  00000-0  00000+0 0  9999
2 43700   0.0022  94.4024 0001649 345.3265 113.0119  1.00272852 27283
MinXSS-2
1 43758U 18099A   26128.72676876  .00029699  00000-0  64314-3 0  9998
2 43758  97.4547 203.9358 0007870  58.7417 301.4601 15.44372823408038
AO-95
1 43770U 18099N   26128.41259638  .00009077  00000-0  35678-3 0  9990
2 43770  97.4406 188.8278 0010337 124.7867 235.4346 15.25854962407155
SNUSat 2
1 43782U 18099AA  26128.61066558  .00007058  00000-0  31858-3 0  9995
2 43782  97.4092 182.6154 0011830  78.5910 281.6653 15.21235259407015
SnugLite
1 43784U 18099AC  26128.81837080  .00010382  00000-0  40235-3 0  9998
2 43784  97.3899 183.5068 0004341  81.7511 278.4220 15.26324995407315
ITASat 1
1 43786U 18099AE  26128.75467623  .00006226  00000-0  30389-3 0  9996
2 43786  97.4058 181.0627 0014179 127.0011 233.2523 15.18549513406925
EAGLET 1
1 43790U 18099AJ  26128.56389687  .00003601  00000-0  20935-3 0  9993
2 43790  97.4259 179.2848 0012656 119.9063 240.3427 15.12635653406345
ESEO
1 43792U 18099AL  26128.86509914  .00001706  00000-0  12709-3 0  9999
2 43792  97.3994 167.9335 0013330 106.2471 254.0223 15.04119540405897
JO-97
1 43803U 18099AX  26128.14758207  .00013347  00000-0  42861-3 0  9990
2 43803  97.4155 190.8790 0006775  64.9539 295.2405 15.32399367407495
Suomi 100
1 43804U 18099AY  26128.12621563  .00009566  00000-0  35751-3 0  9991
2 43804  97.4210 188.6921 0011361  68.0387 292.2059 15.27505663407306
ISAT
1 43879U 18111D   26128.56742704  .00063231  00000-0  80632-3 0  9994
2 43879  97.5902  60.9534 0008497  92.5584 267.6644 15.59061653404984
UWE-4
1 43880U 18111E   26128.76789238  .00028426  00000-0  62813-3 0  9999
2 43880  97.5855  55.4217 0010715 104.0888 256.1551 15.43755117404698
Sparrow
1 43881U 18111F   26128.27359448  .00090267  00000-0  90981-3 0  9991
2 43881  97.6119  65.6595 0007642 114.3591 245.8467 15.65067113405110
Prox-1
1 44339U 19036A   26128.81616475  .00011561  00000-0  11494-2 0  9994
2 44339  23.9965  17.0427 0006423 296.8440  63.1402 14.89694284367599
Taurus 1
1 44530U 19059C   26128.88173902  .00005230  00000-0  84733-3 0  9995
2 44530  98.6396 291.2919 0009596  79.7134 280.5152 14.71676047352862
TO-108
1 44881U 19093C   26128.86783880  .00000002  00000-0  62885-5 0  9990
2 44881  97.7534 202.0576 0012643 211.5375 148.5084 14.86452568345577
RS-44
1 44909U 19096E   26128.36713840  .00000012  00000-0  76094-5 0  9996
2 44909  82.5247   6.1689 0216531 237.3560 120.6485 12.79748155297250
SALSAT
1 46495U 20068K   26128.89180830  .00007383  00000-0  26279-3 0  9990
2 46495  97.8866 129.5841 0011662  82.9871 277.2694 15.29223833309350
CSS (TIANHE-1)
1 48274U 21035A   26128.81158819  .00025143  00000-0  26660-3 0  9994
2 48274  41.4664 201.5457 0004648 359.4897   0.5937 15.63500217287015
CUTE
1 49263U 21088D   26128.72128272  .00186810  00000-0  11138-2 0  9993
2 49263  97.4196 224.7173 0000922 287.8684  72.2481 15.77390208256306
TeikyoSat 4
1 49396U 21102B   26128.80952034  .00001543  00000-0  10027-3 0  9993
2 49396  97.3703 159.8219 0013666  71.7303 288.5412 15.09368470246780
Z-Sat
1 49399U 21102E   26128.84755799  .00003471  00000-0  17349-3 0  9995
2 49399  97.3354 165.3673 0017456  30.2342 329.9896 15.17965988247474
KOSEN 1
1 49402U 21102H   26128.09069078  .00005750  00000-0  22394-3 0  9993
2 49402  97.3221 171.0370 0013327 357.2558   2.8605 15.26289687247902
HO-113
1 50466U 21131B   26128.83221084  .00000423  00000-0  14440-3 0  9991
2 50466  98.4953 221.4394 0003547 200.3994 159.7053 14.41319629229443
SNUGLITE 2
1 52899U 22065F   26128.87661604  .00000844  00000-0  16912-3 0  9993
2 52899  98.2150 273.7904 0008355 140.4900 219.6913 14.64273590205246
UmKA 1 (RS40S)
1 57172U 23091G   26128.80732025  .00004662  00000-0  21701-3 0  9995
2 57172  97.5074 187.6644 0011328 254.3564 105.6421 15.20373164158023
CubeBel-2 (EU11S)
1 57175U 23091K   26128.84293127  .00010480  00000-0  38299-3 0  9992
2 57175  97.5070 191.7334 0008657 249.0450 110.9863 15.28248141158292
RS-38S
1 57189U 23091Z   26128.84791933  .00014482  00000-0  43111-3 0  9990
2 57189  97.5105 197.5812 0007273 199.1619 160.9352 15.34793480158652
SONATE-2
1 59112U 24043Q   26128.87601138  .00034698  00000-0  49913-3 0  9993
2 59112  97.5497 276.9622 0006159 348.5957  11.5156 15.55974793121779
